#timestamp,LO_Frequency,Hit,StdDev 
1569808815.6,286046997.0,N
1569808835.5,286046995.8,N
1569808855.3,286046999.6,N
1569808875.1,286046995.5,N
1569808895.9,286046995.6,N
1569808915.7,286046995.2,N
1569808935.6,286046997.8,N
1569808955.4,286046995.7,N
1569808975.2,286046993.3,Y
1569808995.1,286046996.8,P
1569808996.0,286046996.8,P
1569809015.8,286046998.4,P
1569809035.6,286046998.6,N
1569809055.5,286046997.3,Y
1569809075.3,286046998.3,P
1569809095.2,286046998.3,P
1569809115.9,286046998.3,P
1569809135.7,286047002.3,Y
1569809155.6,286047001.4,P
1569809175.4,286047002.2,N
1569809195.3,286047001.7,N
1569809215.1,286047005.9,Y
1569809216.0,286047005.9,P
1569809235.8,286047001.6,N
1569809255.7,286047001.6,N
1569809275.5,286047002.2,N
1569809295.3,286047004.1,N
1569809315.2,286047000.1,N
1569809335.0,286047000.3,N
1569809335.9,286047000.3,N
1569809355.8,286046999.7,N
1569809375.6,286047002.4,N
1569809395.4,286047001.4,N
1569809415.3,286047001.8,N
1569809435.1,286046999.9,N
1569809455.8,286046999.8,N
1569809475.7,286047004.1,N
1569809495.5,286047001.3,N
1569809515.4,286047001.5,N
1569809535.2,286047001.5,N
1569809555.0,286047005.3,Y
1569809555.9,286047005.3,P
1569809575.8,286047002.6,N
1569809595.6,286047004.3,N
1569809615.4,286047005.8,Y
1569809635.3,286047000.1,P
1569809655.1,286047005.2,P
1569809675.9,286047003.7,N
1569809695.7,286047004.3,N
1569809715.5,286047000.8,N
1569809735.4,286046998.8,N
1569809755.2,286046998.8,N
1569809775.0,286046999.7,N
1569809775.9,286046999.7,N
1569809795.8,286047002.4,N
1569809815.6,286047001.9,N
1569809835.5,286047001.7,N
1569809855.3,286047001.3,N
1569809875.1,286047000.2,N
1569809895.9,286047003.3,N
1569809915.7,286047003.1,N
1569809935.5,286047006.0,Y
1569809955.4,286047004.4,P
1569809975.2,286047007.4,P
1569809995.1,286047003.3,N
1569809996.0,286047003.3,N
1569810015.8,286047003.8,N
1569810035.6,286047002.2,N
1569810055.5,286047002.4,N
1569810075.3,286047000.8,N
1569810095.1,286047003.9,N
1569810115.9,286047002.4,N
1569810135.7,286047000.7,N
1569810155.6,286047001.5,N
1569810175.4,286047001.7,N
1569810195.2,286047002.5,N
1569810215.1,286047007.2,Y
1569810216.0,286047007.2,P
1569810235.8,286047000.0,N
1569810255.6,286046998.5,N
1569810275.5,286046999.6,N
1569810295.3,286046996.2,N
1569810315.2,286046996.6,N
1569810335.9,286046998.2,N
1569810355.7,286046997.8,N
1569810375.6,286046995.9,N
1569810395.4,286046994.0,N
1569810415.2,286046998.0,N
1569810435.1,286046993.9,N
1569810436.0,286046993.9,N
1569810455.8,286046990.6,N
1569810475.7,286046992.1,N
1569810495.5,286046992.6,N
1569810515.3,286046993.9,N
1569810535.2,286046995.8,N
1569810555.9,286046992.3,N
1569810575.7,286046991.0,N
1569810595.6,286046991.4,N
1569810615.4,286046991.4,N
1569810635.2,286046989.2,N
1569810655.1,286046989.7,N
1569810656.0,286046989.7,N
1569810675.8,286046987.1,Y
1569810695.7,286046996.4,P
1569810715.5,286046995.3,P
1569810735.3,286046998.6,N
1569810755.2,286047000.6,N
1569810775.0,286046998.1,N
1569810775.9,286046998.1,N
1569810795.8,286046998.5,N
1569810815.6,286046999.2,N
1569810835.4,286046999.4,N
1569810855.3,286046997.6,N
1569810875.1,286046997.6,N
1569810895.8,286046993.4,Y
1569810915.7,286046996.5,P
1569810935.5,286046996.8,P
1569810955.4,286046996.6,P
1569810975.2,286046995.2,Y
1569810995.0,286046998.8,P
1569810995.9,286046998.8,N
1569811015.8,286046996.5,P
1569811035.6,286046998.7,N
1569811055.4,286046998.7,N
1569811075.3,286046999.0,N
1569811095.1,286046998.9,N
1569811115.9,286046998.7,N
1569811135.7,286047000.6,N
1569811155.5,286047002.2,N
1569811175.4,286046999.5,N
1569811195.2,286046999.2,N
1569811215.0,286046997.5,N
1569811215.9,286046997.5,N
1569811235.8,286046999.8,N
1569811255.6,286046998.1,N
1569811275.5,286046998.1,N
1569811295.3,286046999.1,N
1569811315.1,286046998.0,N
1569811335.9,286046999.4,N
1569811355.7,286046997.2,N
1569811375.5,286046998.3,N
1569811395.4,286046999.3,N
1569811445.2,286047002.5,E
1569811455.2,286047002.6,N
1569811475.0,286047000.9,P
1569811475.9,286047000.9,N
1569811495.7,286047001.1,N
1569811515.6,286047000.4,N
1569811535.4,286046999.3,N
1569811555.3,286047000.1,N
1569811575.1,286047000.2,N
1569811576.0,286047000.2,N
1569811595.8,286047001.2,N
1569811615.7,286046998.1,N
1569811635.5,286047000.7,N
1569811655.3,286046998.6,N
1569811675.2,286046998.8,N
1569811695.0,286046997.3,N
1569811695.9,286046997.3,N
1569811715.8,286046997.8,N
1569811735.6,286046997.8,N
1569811755.4,286046997.7,N
1569811775.3,286046996.4,N
1569811795.1,286046997.8,N
1569811815.8,286046998.0,N
1569811835.7,286046993.7,Y
1569811855.5,286046995.0,P
1569811875.4,286046994.9,N
1569811895.2,286046995.0,N
1569811915.0,286046997.0,N
1569811915.9,286046997.0,N
1569811935.8,286046997.9,N
1569811955.6,286046995.1,Y
1569811975.4,286047007.5,P
1569811995.3,286047010.7,N
1569812015.1,286047010.2,N
1569812035.9,286047008.7,N
1569812055.7,286047008.3,N
1569812075.5,286047012.0,N
1569812095.4,286047008.2,N
1569812115.2,286047008.8,N
1569812135.0,286047007.3,N
1569812135.9,286047007.3,N
1569812155.8,286047006.7,N
1569812175.6,286047006.2,N
1569812195.5,286047009.1,N
1569812215.3,286047008.3,N
1569812235.1,286047009.3,N
1569812255.9,286047011.2,Y
1569812275.7,286047001.4,P
1569812295.5,286047000.7,N
1569812315.4,286047000.5,N
1569812335.2,286047000.8,N
1569812355.1,286047000.6,N
1569812356.0,286047000.6,N
1569812375.8,286046999.9,N
1569812395.6,286046999.9,N
